Location: ???? ????
(31.2831°N, 45.5190°E)
Time: 07:28:58
(UTC+00:00)

Cosmos 2322 Rocket - Pass Details

Date: 24 February 2021
Orbit: 832 x 852 km, 71.0° (Epoch: 15 April)

Event Time Altitude Azimuth Distance (km) Brightness Sun altitude
Rises 17:23:52 0° 222° (SW) 3,363 5.7 -33.0°
Reaches altitude 10° 17:26:31 10° 232° (SW) 2,431 5.0 -33.6°
Maximum altitude 17:31:30 34° 296° (WNW) 1,351 3.6 -34.6°
Enters shadow 17:33:32 26° 334° (NNW) 1,581 3.8 -35.0°
